GFSNE_850_thetae_000.txt.gz
Theta_e
330 330 330 328 329 329 329 328 327 326 326 321 320 319 321 321 317 318 318 319 319 319 320 320 325 327 336 338 338 338 340 342 342 339 339 339 339 328
326 328 330 330 330 327 327 329 328 326 326 323 320 321 321 322 319 317 317 318 318 318 318 319 321 326 327 335 338 338 338 338 342 342 339 339 339 337
326 327 326 327 328 328 328 328 328 324 325 322 323 321 320 321 321 317 317 318 318 318 318 319 319 321 326 328 334 337 338 337 337 341 340 338 338 336
330 330 326 327 325 327 328 326 324 324 326 325 322 322 323 323 322 318 319 319 318 317 318 318 318 320 322 327 329 335 337 336 336 340 339 342 339 337
326 325 324 323 322 322 322 322 321 321 323 324 323 322 322 321 320 319 319 319 318 317 318 317 318 319 321 323 328 331 334 334 335 339 338 341 342 338
326 323 324 321 321 322 323 323 323 320 321 322 322 321 322 321 320 319 319 318 316 318 318 317 318 319 320 323 325 331 331 333 335 335 335 340 341 339
326 324 322 322 320 320 321 322 322 321 321 321 321 320 321 320 320 319 319 318 317 318 316 317 318 319 321 322 326 328 332 332 335 335 335 340 342 342
326 324 324 323 320 320 320 320 320 320 322 321 321 321 320 320 320 320 319 318 318 317 316 317 318 319 320 321 327 331 333 333 333 334 335 338 341 342
326 326 326 324 321 321 320 320 320 321 322 321 321 321 321 321 320 320 319 319 318 316 317 318 319 319 320 320 323 331 333 334 332 333 335 336 339 339
326 326 325 325 322 322 321 320 321 321 320 321 321 321 319 318 317 319 320 318 316 317 317 318 318 319 320 320 323 329 335 336 335 332 333 334 335 336
327 326 325 323 322 322 321 321 319 317 320 321 321 319 316 317 319 318 316 316 316 316 317 318 318 319 321 321 324 329 336 337 335 333 332 334 336 338
326 324 324 323 321 319 317 317 318 320 319 318 317 314 317 319 319 317 317 316 315 316 317 318 318 320 322 323 325 329 337 338 336 335 336 336 337 337
325 325 323 320 316 315 316 318 319 318 318 317 314 317 318 318 318 318 316 314 316 317 319 319 319 321 323 326 332 331 337 338 336 338 338 337 334 336
324 322 320 318 314 313 315 317 318 317 315 315 316 317 317 318 319 318 315 315 317 318 319 323 322 323 324 327 328 335 336 338 338 338 338 335 336 335
322 320 320 318 314 312 315 318 317 315 314 315 316 317 317 318 317 317 315 316 318 319 319 324 324 325 327 330 336 338 336 336 337 338 338 339 339 338
320 320 318 317 314 314 317 318 315 313 314 314 314 314 314 314 315 315 316 319 318 318 320 325 327 326 327 331 335 337 337 337 337 337 339 339 338 337
318 318 316 314 315 316 317 314 312 313 312 310 309 309 310 310 312 315 316 318 318 318 319 321 326 328 329 331 335 337 335 336 337 338 337 338 337 340
317 315 313 313 315 315 313 312 312 311 309 309 308 307 307 307 309 314 317 319 318 317 318 319 322 327 329 330 334 336 335 334 335 337 337 337 339 341
314 311 311 312 312 311 310 310 310 309 307 307 305 305 304 305 308 314 317 319 318 317 316 317 320 322 326 326 329 333 332 335 334 337 337 338 338 340
312 311 311 311 310 309 309 309 306 305 301 301 302 302 302 302 305 313 316 319 317 318 316 317 318 320 320 321 321 322 331 335 336 337 337 337 337 336
311 310 310 310 308 308 308 306 306 301 297 300 300 300 300 300 302 310 315 318 319 317 317 317 316 320 320 319 319 319 322 332 335 336 336 336 338 337
308 309 308 307 306 306 305 304 298 295 298 299 299 299 299 299 300 306 312 316 317 318 317 317 317 316 317 317 320 319 318 320 324 332 334 335 336 335
307 307 306 305 303 301 299 295 296 297 298 298 298 298 298 298 299 301 308 313 316 317 319 319 318 317 318 316 317 319 320 319 318 321 326 331 333 332

GFSNE_850_thetae_003.txt.gz
Theta_e
329 329 330 332 331 331 331 330 330 330 329 326 325 324 322 321 320 321 321 318 317 318 318 318 318 319 319 321 324 329 337 336 338 340 341 341 341 339
324 323 324 330 328 327 327 329 329 329 328 325 326 325 320 321 322 322 322 321 318 318 318 318 318 319 318 319 321 324 328 337 338 338 341 342 341 341
323 324 325 326 327 327 325 325 328 328 328 325 326 327 321 320 319 321 321 319 319 318 318 318 316 319 319 318 319 321 325 328 337 339 339 341 342 341
325 326 325 324 323 322 321 322 323 325 325 327 323 326 327 323 321 320 320 320 319 319 318 317 317 319 318 319 319 320 321 326 329 337 339 338 339 341
324 325 324 325 324 322 322 322 326 323 326 325 325 324 325 326 325 324 325 324 322 321 320 319 318 319 318 318 320 320 321 322 327 331 337 338 337 338
324 326 327 324 323 322 320 320 321 322 326 326 326 325 325 325 325 325 324 323 323 322 321 320 320 319 319 319 320 320 321 322 324 329 333 337 337 336
322 324 326 325 324 323 321 321 320 322 326 325 325 325 324 324 323 323 324 323 322 321 321 321 321 320 320 320 321 322 323 322 324 327 330 335 336 335
324 326 327 326 325 325 324 321 321 321 321 323 324 325 325 325 324 325 323 322 321 320 321 321 320 319 318 320 320 320 321 322 328 326 330 332 334 335
327 328 328 326 325 326 325 323 322 322 321 321 322 322 323 324 322 321 320 320 320 321 321 319 319 318 317 318 320 320 321 322 323 329 331 333 333 334
330 329 329 327 326 325 324 323 322 321 321 320 321 321 321 321 319 316 317 319 319 320 320 318 317 317 318 318 319 320 321 322 323 328 332 333 333 335
329 328 328 328 325 324 324 321 320 318 318 319 320 319 320 317 316 318 319 319 320 320 317 315 317 317 318 318 320 321 322 323 323 326 334 333 333 333
329 327 328 325 325 324 321 317 316 316 317 318 319 315 314 318 318 318 319 319 318 316 316 317 317 317 318 319 322 325 326 325 325 329 336 335 332 332
327 328 326 325 324 320 317 314 313 314 317 317 313 316 317 318 318 318 318 317 317 316 317 318 317 317 319 322 323 324 328 328 328 333 339 338 334 333
328 326 325 323 321 319 317 313 313 317 317 313 315 315 315 315 316 315 314 315 316 317 317 318 317 319 321 323 324 327 331 332 332 337 340 338 334 334
325 323 322 320 321 319 316 313 316 316 314 313 313 313 312 311 312 311 310 314 316 318 317 318 319 321 323 324 326 329 332 335 335 338 340 338 335 335
322 320 319 319 318 316 314 316 315 314 312 312 312 311 311 310 310 307 309 315 318 318 317 319 319 322 324 326 327 329 331 337 335 337 339 338 338 338
320 318 317 316 314 314 315 315 312 311 311 310 309 309 308 307 307 305 312 315 318 318 316 319 320 323 326 328 329 331 334 336 336 336 337 338 338 338
317 315 315 312 313 313 312 311 309 310 309 308 305 305 305 304 304 304 311 315 317 318 316 316 319 320 322 326 327 330 333 336 335 336 337 338 339 338
313 312 312 311 311 311 310 309 308 308 307 304 301 302 302 302 302 305 311 314 319 318 316 316 316 318 318 319 321 323 329 333 335 332 333 337 338 339
313 312 310 310 309 308 308 308 308 307 305 299 300 301 301 301 302 304 309 314 317 318 317 317 317 317 317 318 319 319 321 330 333 333 334 334 338 338
309 310 310 309 309 308 308 307 306 302 297 298 300 300 300 301 302 303 306 312 315 317 318 318 317 317 318 317 318 319 319 319 329 333 334 336 338 338
306 307 308 308 307 306 305 302 298 296 298 299 299 299 299 300 301 302 305 308 311 315 317 319 318 318 319 317 317 317 318 317 320 330 333 336 338 338
306 306 306 306 304 302 300 296 295 297 297 298 298 299 298 300 300 301 302 306 309 313 316 318 318 318 318 318 317 318 319 317 315 322 325 325 335 336

GFSNE_850_thetae_009.txt.gz
Theta_e
334 335 334 333 331 330 331 332 332 331 331 331 330 330 328 330 330 329 329 330 328 325 321 321 320 318 318 318 318 317 318 318 318 319 320 322 330 333
332 330 333 331 331 332 332 331 331 330 329 329 330 329 329 330 330 329 328 328 328 328 326 326 324 320 318 317 318 317 317 318 319 319 319 319 321 326
333 329 332 334 333 332 330 331 329 329 329 327 328 329 328 329 328 329 330 329 329 328 328 327 326 323 320 317 317 316 316 318 318 317 318 318 319 320
332 331 334 334 334 334 332 332 332 329 330 329 329 329 329 328 329 327 328 328 328 327 326 323 325 325 324 322 318 318 319 318 317 317 317 319 319 319
333 333 334 334 333 333 332 330 330 329 330 328 327 327 327 328 326 328 326 327 326 326 327 327 325 325 324 322 321 322 323 322 321 320 319 317 318 319
334 333 335 335 334 334 334 334 332 332 330 328 327 329 328 326 327 327 326 326 326 326 326 325 325 324 323 322 321 323 324 323 323 322 321 320 318 318
334 333 334 334 334 334 333 330 331 329 330 329 327 326 326 326 327 326 327 327 326 326 324 324 325 324 322 320 322 324 325 323 322 322 321 320 319 318
335 335 334 336 335 332 327 327 329 328 327 327 328 327 326 327 327 327 327 326 324 323 324 323 322 320 319 321 323 323 322 321 321 320 319 319 319 318
335 334 335 336 331 326 327 328 326 326 328 328 327 327 326 324 324 324 324 324 323 322 321 321 321 322 322 322 323 322 321 320 318 319 319 319 319 319
334 335 336 335 333 329 328 327 325 328 329 328 328 326 326 325 320 318 318 318 319 319 321 322 323 322 322 323 321 320 319 319 319 320 320 321 321 320
333 336 337 330 329 327 327 326 325 327 327 326 325 324 323 318 318 318 320 319 319 320 321 321 321 321 320 320 318 319 318 320 320 320 322 322 323 322
335 335 329 327 326 327 326 326 327 328 327 326 326 323 320 321 318 318 319 321 320 320 320 319 318 318 320 319 319 318 319 320 320 322 323 324 324 324
336 335 331 330 328 324 325 327 325 324 322 320 321 321 322 320 318 318 320 320 319 318 317 315 315 319 320 320 318 318 319 319 322 325 326 327 326 326
334 332 331 331 327 326 324 322 320 320 320 319 321 321 320 316 316 317 316 315 315 314 311 314 317 320 320 318 317 318 320 322 324 325 327 329 329 330
329 327 331 328 325 322 320 319 319 318 319 321 321 317 315 316 315 315 315 313 312 310 313 319 319 319 320 318 318 318 319 319 322 326 328 329 332 331
328 328 326 323 320 319 319 319 319 319 320 318 315 316 314 314 314 313 312 310 309 310 316 318 319 318 319 316 316 317 319 319 319 322 330 334 334 331
327 326 325 324 323 323 322 321 320 319 318 316 315 314 312 312 311 310 309 308 309 312 317 318 318 318 319 317 316 317 318 317 318 321 329 333 334 332
325 323 323 322 321 321 321 321 319 317 316 315 313 311 311 310 309 308 308 308 309 312 316 318 318 318 318 316 316 316 315 315 317 320 328 330 331 334
318 320 320 321 320 320 319 317 316 315 313 311 310 309 308 308 307 307 308 308 310 312 315 317 317 317 316 316 315 315 314 313 316 318 323 329 331 331
319 319 320 319 318 317 315 314 313 312 310 308 307 307 307 307 307 307 307 307 307 312 315 316 315 316 316 315 315 314 314 312 313 316 320 329 331 334
320 318 317 316 315 314 313 313 311 309 306 304 306 306 306 306 306 306 306 306 306 310 312 315 315 315 316 314 315 314 314 313 313 312 314 324 330 331
318 317 315 314 314 313 312 310 308 306 305 306 305 305 305 305 305 305 305 305 306 307 308 314 315 314 314 315 314 313 313 313 313 315 313 313 314 319
317 316 315 314 313 312 310 307 305 304 305 305 304 304 304 304 304 304 305 305 306 306 305 311 314 313 313 314 313 313 313 312 311 309 315 314 314 317

GFSNE_850_thetae_012.txt.gz
Theta_e
335 328 324 332 333 331 331 331 331 330 330 330 329 331 330 329 330 330 330 330 328 325 327 327 325 324 321 319 318 318 317 317 317 317 318 318 318 319
331 333 332 333 333 330 331 330 330 332 330 329 329 329 328 329 328 330 330 325 326 327 326 326 328 328 326 324 322 318 316 316 317 317 317 318 318 318
323 328 331 331 329 331 332 332 331 329 329 329 326 325 327 327 327 328 329 328 327 328 328 327 327 326 324 324 324 323 321 318 315 315 316 317 317 317
324 323 323 326 327 332 330 328 331 332 331 328 330 328 328 329 327 327 327 329 329 328 327 326 327 327 327 326 325 323 322 320 322 320 317 317 318 317
326 326 323 327 333 333 334 333 331 329 329 331 328 327 327 328 327 325 326 327 328 326 326 325 327 327 326 325 325 324 323 320 321 323 323 322 321 320
331 330 329 333 334 329 329 328 328 329 331 332 332 331 329 326 326 328 329 328 327 327 326 327 326 325 323 326 325 324 322 320 321 323 324 323 322 321
335 332 331 332 334 330 330 330 332 328 328 328 328 328 328 328 327 325 325 324 324 323 326 326 325 324 324 324 323 322 321 319 322 324 323 322 321 321
329 335 333 333 332 334 332 331 332 328 327 328 326 325 327 327 325 325 325 326 323 321 325 324 320 322 321 317 317 323 323 323 324 323 322 321 321 321
335 337 333 331 333 333 333 331 328 328 328 327 325 323 326 325 325 324 323 321 320 317 315 316 320 322 324 324 323 321 324 325 323 322 321 318 317 317
335 334 333 332 334 334 331 329 329 328 327 326 325 326 326 325 325 325 321 317 317 319 320 321 321 320 319 320 322 323 324 320 316 317 318 319 320 320
334 333 330 327 329 328 327 330 328 327 325 326 327 327 327 326 324 320 318 318 318 319 320 319 319 321 320 319 318 315 318 319 318 318 319 322 321 321
329 332 331 331 330 327 328 327 327 327 327 328 326 325 325 322 321 321 319 320 319 321 321 320 319 317 314 315 318 320 320 317 317 318 320 320 324 324
330 331 334 333 331 330 329 326 325 326 326 324 322 319 319 321 323 321 318 319 319 319 317 314 310 311 314 317 320 318 318 317 317 318 320 319 323 325
334 336 336 333 330 327 328 326 325 322 320 319 318 320 322 319 317 316 316 316 314 314 312 314 311 317 318 319 318 319 317 316 317 318 319 318 321 325
332 332 329 329 326 327 327 322 319 319 318 318 320 321 319 316 315 314 314 313 312 311 310 309 317 317 318 318 319 318 316 316 317 317 317 317 322 326
329 327 328 327 327 323 322 322 321 320 319 320 320 317 316 315 313 312 311 310 309 308 310 310 315 317 318 318 317 316 315 315 315 314 315 318 324 327
326 327 326 325 325 324 324 323 321 320 319 320 318 316 315 312 311 310 309 308 309 309 310 314 316 316 317 317 315 315 315 314 314 313 314 316 321 327
328 329 326 325 324 323 322 321 321 321 318 317 316 315 311 310 309 308 308 308 308 308 309 313 315 316 315 316 315 314 314 313 312 312 313 313 319 328
327 323 321 321 322 321 321 320 318 317 315 314 311 310 309 308 308 307 307 307 307 306 307 311 315 315 315 316 315 314 313 312 310 310 312 313 316 327
319 320 320 321 320 319 318 316 315 314 313 311 309 307 307 307 307 307 306 306 306 306 308 310 313 314 314 313 315 314 313 311 310 309 309 313 317 327
322 321 319 318 317 316 315 314 314 312 309 306 306 307 307 306 306 306 306 305 305 307 307 306 308 314 313 314 314 313 312 311 309 308 307 310 313 324
320 319 318 317 316 315 314 313 311 308 306 306 306 306 305 305 305 305 305 305 305 306 306 306 308 312 313 311 312 313 311 311 310 307 307 308 307 308
320 319 317 317 316 314 312 309 308 305 305 305 305 305 305 304 304 305 305 305 305 306 305 306 307 314 311 310 312 312 310 310 308 306 306 308 309 311

GFSNE_850_thetae_018.txt.gz
Theta_e
318 324 328 334 333 332 332 332 331 330 330 329 329 329 330 332 332 330 330 329 328 328 327 327 325 326 327 327 327 327 325 323 322 320 318 316 316 316
323 320 321 333 334 332 332 331 330 329 330 330 331 329 328 329 328 327 325 324 326 328 327 329 327 327 327 327 326 326 326 325 324 323 322 319 318 317
323 324 322 319 332 332 332 331 330 330 331 330 329 328 328 328 326 324 325 326 327 325 326 327 326 328 327 326 326 325 325 326 326 326 324 321 320 321
323 323 327 326 326 329 332 332 332 332 331 330 329 329 327 327 327 326 328 329 327 326 326 327 327 330 327 326 325 325 327 325 325 325 326 325 322 321
323 324 327 329 326 327 327 325 329 331 331 329 328 327 326 328 329 329 330 328 328 327 327 327 325 324 323 324 326 327 326 325 324 324 325 325 325 322
322 324 326 331 330 327 327 326 327 330 328 331 326 326 327 326 327 328 327 326 326 324 321 320 319 318 319 322 326 325 325 324 324 324 323 323 322 322
329 324 323 325 329 329 330 322 328 331 329 329 327 328 327 328 327 327 325 324 325 322 321 318 317 316 314 314 315 315 316 317 317 317 319 320 322 322
337 329 325 327 327 330 331 331 330 332 331 329 328 329 328 329 327 326 325 326 325 321 321 318 317 317 319 318 315 314 316 317 318 319 320 321 321 323
343 335 329 329 331 332 335 334 332 329 329 326 327 328 328 328 326 325 326 326 325 321 320 318 318 318 318 319 319 315 315 314 318 320 322 322 321 320
343 339 332 330 333 332 330 334 333 331 327 327 328 327 329 327 325 326 327 325 323 321 321 321 320 319 317 317 315 312 310 312 313 316 317 317 318 318
340 333 334 336 336 335 331 333 332 327 326 327 327 328 327 326 326 326 324 324 324 321 322 322 318 315 314 313 312 310 309 314 315 316 317 317 317 317
336 335 337 335 331 333 330 331 331 327 327 327 329 327 325 325 324 322 319 320 322 320 317 315 314 314 313 311 310 309 313 313 315 316 317 316 315 315
336 336 336 336 334 335 330 329 329 328 328 327 325 320 318 318 318 320 318 316 315 314 314 313 312 310 309 309 312 312 312 315 315 316 316 316 314 313
338 338 337 335 333 331 330 329 328 326 327 322 319 318 317 320 319 317 316 315 314 312 311 310 309 309 309 310 312 313 314 314 314 315 315 314 314 313
339 335 334 331 329 328 327 327 327 326 320 319 318 318 318 318 317 317 316 315 312 310 309 308 307 309 310 310 312 313 313 313 312 313 314 314 313 312
338 334 330 330 329 329 328 325 322 321 321 320 319 318 318 318 317 316 315 310 308 307 307 306 307 306 307 310 310 311 312 312 311 314 313 313 312 311
337 334 331 331 326 324 323 323 323 322 321 320 319 318 319 319 316 312 308 307 307 306 306 306 306 306 309 307 308 310 312 310 310 312 311 310 310 309
333 333 328 325 323 323 323 325 323 322 321 320 320 320 315 313 311 309 307 306 306 306 305 305 306 307 306 305 308 309 311 310 311 310 309 308 308 307
325 326 326 325 322 321 321 321 320 320 319 318 319 318 313 311 309 307 306 306 305 305 305 305 307 305 305 307 310 312 309 309 309 309 308 306 305 303
326 325 324 324 320 321 320 319 317 317 316 314 313 312 308 306 306 306 305 305 304 304 305 305 305 304 306 310 312 310 308 308 307 307 304 303 302 301
322 320 320 319 320 320 318 317 315 314 314 313 312 306 306 305 305 305 304 304 304 305 305 305 304 305 308 311 311 307 307 308 307 305 302 300 300 299
320 321 320 321 318 317 317 316 316 312 308 308 305 305 305 305 304 304 304 304 305 304 304 305 304 306 307 312 308 306 307 307 307 307 302 299 298 298
320 320 319 319 318 318 317 316 314 312 310 306 304 305 305 304 304 303 304 305 304 304 304 304 305 305 306 308 306 304 307 307 306 306 303 301 299 299

GFSNE_850_thetae_024.txt.gz
Theta_e
322 320 327 332 333 333 333 332 331 331 330 330 329 329 329 328 328 330 331 330 328 326 325 326 327 327 328 329 328 327 326 326 325 325 325 323 323 321
323 321 319 322 326 331 333 333 331 331 331 330 329 329 330 329 328 328 327 326 325 326 327 326 326 325 325 325 327 327 327 326 325 324 325 325 324 324
322 323 322 320 318 321 326 332 333 332 331 330 330 329 330 329 329 329 327 328 328 328 329 329 328 328 327 325 326 328 328 328 328 326 325 325 326 325
335 323 322 323 321 321 320 326 330 332 332 331 331 331 330 329 329 328 326 327 327 326 327 327 327 327 327 323 320 319 321 323 324 323 323 325 326 325
344 342 330 323 324 324 324 323 327 328 331 332 329 330 331 330 329 327 327 328 327 327 326 325 324 323 322 319 318 317 316 318 321 324 324 325 325 324
345 345 343 330 324 326 328 328 328 329 330 330 329 327 330 331 330 328 326 327 327 327 327 324 323 321 319 317 316 315 315 314 314 316 317 318 321 323
347 346 345 343 335 327 326 330 332 333 332 330 328 327 331 331 330 327 326 327 327 327 326 322 322 320 318 317 317 317 317 317 317 314 313 314 316 319
350 349 347 345 342 341 332 328 333 335 334 334 332 329 330 332 329 328 327 327 328 326 324 323 323 321 320 320 320 318 317 315 315 314 312 310 309 316
349 349 349 347 345 343 341 331 330 332 333 334 333 333 331 329 329 328 327 327 327 325 325 325 322 320 319 320 321 317 316 315 313 312 309 309 312 314
348 351 350 348 347 345 343 336 332 332 333 332 330 332 329 329 327 327 328 327 325 324 324 322 319 320 318 317 317 316 313 310 309 309 309 313 313 314
350 353 352 350 347 345 343 338 334 333 335 333 332 332 331 327 327 327 325 324 324 320 318 319 317 316 316 316 313 310 309 309 309 309 310 313 313 312
351 355 352 347 344 340 338 335 335 335 334 332 329 330 329 328 325 319 318 318 318 317 316 316 315 313 311 310 309 307 307 308 310 312 312 313 311 310
351 354 349 344 341 336 335 335 336 335 332 328 329 328 327 322 318 316 318 318 317 316 315 313 311 309 308 307 307 306 307 309 310 308 308 311 312 311
353 349 343 339 335 335 334 334 334 334 330 329 328 326 322 318 317 316 317 316 316 316 313 309 307 307 307 306 305 305 306 307 305 306 309 310 310 309
348 342 337 335 335 336 336 334 332 331 330 329 327 322 319 319 318 317 317 317 316 314 309 306 306 306 305 305 305 306 306 305 305 306 309 310 308 304
341 337 336 337 337 334 331 330 328 328 329 327 324 320 319 319 318 318 317 317 314 312 307 305 305 305 304 305 305 305 304 305 309 310 308 306 303 303
337 336 336 338 332 328 328 328 328 327 326 323 321 320 321 319 318 319 317 313 311 307 306 305 304 304 304 305 305 304 305 309 309 307 304 303 303 304
338 337 335 335 330 329 329 329 328 323 322 322 322 322 321 319 319 317 313 310 306 305 304 304 304 304 304 304 304 304 307 308 306 303 302 304 303 303
339 335 335 335 329 330 327 324 323 322 322 320 318 318 318 316 315 312 308 306 305 304 304 304 304 304 304 304 304 305 308 307 303 302 301 303 304 304
332 333 334 334 331 325 323 321 320 320 318 317 315 314 314 313 312 307 305 304 303 303 303 304 304 304 304 304 304 303 306 305 302 301 303 303 302 306
331 331 330 328 326 323 320 320 319 318 317 316 315 313 312 311 306 305 304 303 303 303 303 304 304 304 304 304 303 303 303 302 300 301 300 300 304 302
323 323 323 324 323 320 319 319 318 317 315 314 311 308 307 305 305 304 303 302 302 303 303 304 303 303 303 303 302 302 301 299 298 298 297 303 301 301
320 321 321 320 320 319 319 318 317 316 314 313 311 308 305 304 304 304 303 302 302 303 303 303 303 303 303 303 302 302 300 299 297 297 297 304 304 302

GFSNE_850_thetae_027.txt.gz
Theta_e
324 325 323 329 331 332 332 332 333 332 332 332 332 329 329 328 328 328 328 330 330 329 325 324 324 324 324 324 325 326 326 326 326 325 325 325 325 323
322 324 323 321 323 327 331 333 332 333 332 333 331 329 329 329 329 328 328 327 326 325 325 327 328 328 328 327 328 324 324 325 326 327 326 325 324 325
323 321 323 323 320 321 320 324 327 332 333 333 330 330 330 330 329 329 328 326 328 329 328 327 327 328 328 328 327 325 322 322 326 328 328 328 327 325
331 325 321 322 323 322 320 320 320 328 333 332 334 330 331 330 329 329 329 327 326 327 327 327 327 325 325 324 322 320 318 317 318 319 320 320 321 323
341 342 342 336 325 323 324 323 323 322 326 332 333 331 329 330 330 330 329 327 327 327 327 327 327 325 322 321 319 317 316 316 315 315 316 319 322 324
343 343 344 344 342 332 324 326 327 327 328 329 333 333 329 330 330 332 332 329 327 326 327 327 326 322 322 321 318 317 317 317 315 316 315 315 315 315
345 345 346 345 345 343 331 327 328 330 332 333 335 333 333 328 327 332 330 330 327 327 327 327 326 326 324 322 319 318 319 319 317 316 315 316 314 312
347 347 347 347 346 345 344 340 328 328 332 335 336 335 333 330 328 331 331 330 329 327 327 327 324 325 326 325 321 319 319 320 316 315 315 314 312 310
347 349 349 349 349 347 346 344 337 331 330 333 335 333 333 333 332 329 329 327 328 330 326 327 327 326 324 322 320 319 318 316 315 313 312 311 310 309
346 347 349 350 349 349 347 346 341 338 332 331 332 333 331 332 331 329 327 327 328 326 325 325 323 322 322 320 318 317 316 312 309 308 308 309 310 313
344 346 348 348 349 348 347 346 343 341 334 332 334 333 332 332 331 328 327 327 327 326 323 321 320 320 319 318 316 313 308 306 306 307 308 310 312 313
345 344 347 349 352 352 348 346 345 341 335 333 335 333 331 330 330 328 327 324 322 321 321 318 318 317 315 312 313 311 310 309 308 310 309 311 310 311
345 344 346 349 354 350 347 345 341 338 335 335 333 330 329 329 328 320 316 318 320 319 319 316 316 314 312 311 310 310 309 309 310 310 309 308 307 309
341 344 347 353 353 349 344 338 335 336 336 334 330 328 328 327 320 318 317 316 316 317 316 313 312 311 310 309 308 308 308 309 310 310 310 312 311 310
348 348 351 352 350 344 337 335 336 335 335 332 329 328 327 323 319 318 317 317 317 317 314 312 307 308 309 308 307 308 308 308 308 310 312 313 311 310
352 351 351 347 341 336 335 336 335 334 333 331 329 328 325 320 319 318 318 318 318 315 312 309 305 305 306 307 308 308 307 307 309 312 312 310 308 307
350 349 344 337 335 336 336 335 333 330 328 328 328 327 321 320 320 319 318 319 315 313 310 308 306 304 304 304 306 306 306 309 311 310 310 307 307 306
338 341 337 336 337 337 334 332 329 327 327 326 325 322 320 320 321 319 318 315 313 310 308 307 306 306 307 307 306 307 306 308 309 308 308 306 306 306
339 336 337 336 337 334 330 328 328 328 326 322 322 322 322 321 319 317 314 312 309 308 307 306 306 307 307 307 306 306 308 307 307 306 305 305 305 305
330 336 337 337 337 331 328 329 328 324 322 323 321 318 317 316 315 313 312 309 308 307 306 307 307 307 306 306 306 307 307 307 306 304 303 303 303 303
336 337 339 338 336 330 328 326 323 321 321 318 317 316 315 314 313 311 308 306 305 306 306 306 306 303 303 305 308 306 307 306 303 300 302 302 302 305
337 339 337 336 334 330 325 322 321 320 318 317 316 314 312 310 310 308 307 306 306 306 306 305 305 304 307 307 306 306 306 304 303 301 300 301 301 302
336 333 332 331 328 325 323 320 320 319 317 316 314 312 311 307 307 307 306 306 305 305 305 305 305 306 306 306 306 306 304 303 302 300 301 300 303 303

GFSNE_850_thetae_030.txt.gz
Theta_e
323 323 325 336 338 337 336 335 335 335 334 335 333 334 334 335 334 329 329 333 329 330 330 327 323 326 327 327 327 327 327 324 325 326 327 327 325 325
332 326 323 334 337 337 336 335 335 334 334 334 334 334 334 334 334 329 335 328 327 327 326 325 327 327 327 328 329 328 328 325 324 321 324 327 327 326
335 332 323 325 335 335 336 336 336 335 334 334 335 334 330 329 334 331 333 333 332 331 328 327 326 326 327 326 326 326 323 320 318 318 318 322 325 326
341 335 326 324 324 329 336 334 335 335 333 335 335 337 334 334 331 330 333 333 333 333 330 327 327 327 326 325 323 321 319 316 315 315 316 316 318 319
345 338 331 328 323 332 326 334 335 335 335 334 334 337 336 336 336 333 336 335 334 332 329 327 327 327 327 324 321 319 318 316 316 316 315 315 314 315
345 345 340 341 341 340 335 326 328 333 335 335 334 334 336 336 335 333 335 335 333 333 331 329 327 327 326 322 320 320 319 318 318 319 317 316 316 316
344 345 343 343 343 344 343 343 335 332 334 335 336 335 335 335 336 335 333 330 333 333 333 332 330 330 330 328 327 327 325 322 320 320 318 317 316 316
341 346 346 345 345 345 346 344 343 338 337 336 337 336 337 337 337 335 334 334 331 333 332 332 332 331 329 328 327 327 325 319 320 320 316 316 315 314
338 347 348 349 346 347 347 347 343 343 340 337 337 336 337 338 336 336 336 335 334 333 331 332 330 329 327 325 324 323 319 318 317 316 314 312 311 311
342 343 346 347 349 347 349 349 348 346 344 338 334 338 337 338 333 334 335 333 332 333 332 331 328 324 324 323 322 320 318 315 313 311 308 307 308 309
342 343 346 346 350 348 349 350 348 348 345 343 337 333 334 334 334 335 335 333 332 331 329 327 323 322 322 320 319 318 314 310 308 307 307 308 307 308
347 347 342 342 345 346 348 350 349 347 346 344 340 332 333 334 333 332 333 332 330 325 325 323 319 319 319 318 315 314 313 312 310 310 310 309 307 307
349 352 351 345 344 344 348 350 350 348 346 343 341 335 335 334 331 331 331 327 324 323 322 322 319 318 316 315 313 312 312 311 311 311 311 311 311 310
351 348 351 345 340 343 348 350 349 346 344 341 341 338 337 335 334 330 323 319 322 317 321 316 318 317 315 313 311 310 310 310 310 311 311 311 312 314
353 352 350 345 342 347 350 351 348 345 342 340 338 337 335 333 329 325 319 318 318 317 318 316 315 314 311 310 310 310 310 310 310 310 310 313 314 313
352 353 351 348 348 351 351 347 343 339 338 338 337 335 333 329 326 324 323 322 321 320 319 315 312 308 309 309 309 309 309 309 309 311 313 313 312 311
351 351 349 350 349 347 345 342 338 337 335 336 335 333 330 328 325 324 323 322 321 318 316 316 312 310 309 307 309 310 310 309 309 310 311 310 310 310
350 348 348 346 339 341 342 337 336 336 336 336 334 331 329 326 324 324 323 322 319 317 315 313 310 309 309 310 310 310 310 309 309 309 309 308 307 307
347 341 338 333 334 336 338 335 335 335 334 332 331 329 326 325 324 324 322 319 317 315 312 311 309 309 310 310 309 309 308 309 309 309 308 307 306 306
335 335 335 336 334 336 336 335 334 332 331 330 329 326 325 325 325 322 319 317 315 312 311 310 309 310 310 309 308 308 310 309 308 307 306 305 305 304
336 335 336 335 335 336 336 335 333 330 329 328 326 326 325 323 321 318 317 314 312 310 310 309 310 309 308 307 310 311 309 308 307 305 304 303 303 304
335 337 337 335 334 335 335 333 331 330 328 327 325 324 322 320 318 316 314 312 309 308 308 309 309 309 309 309 310 309 309 308 307 305 303 302 302 302
337 336 335 333 336 335 333 330 329 327 326 325 322 321 319 317 315 314 312 310 309 309 308 308 308 308 309 309 308 308 309 307 306 305 303 302 300 299

GFSNE_850_thetae_033.txt.gz
Theta_e
338 324 328 339 340 339 338 338 337 337 338 338 336 335 335 336 337 336 336 336 333 329 329 329 327 324 326 327 327 328 328 327 328 325 324 325 326 327
343 340 326 338 337 339 338 337 336 336 336 337 338 336 337 335 337 333 336 336 331 327 327 327 325 326 326 326 326 326 327 327 326 324 321 320 321 327
343 342 333 330 338 338 338 338 338 337 336 335 337 337 335 331 336 335 335 336 334 334 332 329 326 326 326 327 326 326 323 321 320 318 316 315 316 318
349 343 337 329 324 334 339 338 338 337 338 335 336 339 338 338 330 335 334 334 335 335 334 333 331 327 326 327 327 326 321 320 317 316 315 315 315 315
348 347 340 337 329 328 329 337 338 337 338 338 337 337 338 339 340 338 337 337 334 335 334 332 331 330 328 327 326 322 321 319 319 317 317 318 317 315
350 346 346 345 334 326 328 331 334 337 338 338 338 336 337 338 339 338 337 338 338 335 334 333 333 332 331 329 329 326 327 327 325 320 318 319 319 316
349 348 348 350 346 333 338 339 340 335 336 338 339 339 337 337 338 338 337 336 336 332 336 334 334 333 332 332 330 330 328 328 327 325 319 320 320 317
346 351 344 350 350 344 339 343 344 344 344 344 341 339 339 338 339 338 338 336 336 335 334 336 333 333 330 332 329 326 325 324 322 320 320 318 316 316
345 348 349 351 350 350 343 342 345 345 345 345 344 341 340 340 339 338 338 336 337 337 335 336 334 332 329 327 326 325 324 322 320 318 317 316 314 311
346 347 351 347 350 349 346 344 345 346 347 347 344 342 341 339 339 338 334 337 336 334 334 334 332 330 326 325 324 323 321 319 315 311 307 306 306 306
349 352 354 351 348 347 349 347 345 347 348 349 346 344 343 340 338 337 338 337 336 335 334 332 330 325 323 322 322 320 317 315 314 312 311 311 310 310
349 351 353 352 351 345 348 350 348 346 349 348 347 345 341 341 336 332 336 336 335 333 332 330 327 323 321 320 320 318 316 315 313 312 312 312 312 312
351 353 351 350 349 349 346 347 346 348 348 349 348 343 341 339 335 332 333 335 335 332 327 325 324 321 320 319 318 316 314 313 312 312 312 312 312 312
352 353 355 355 353 352 352 352 350 348 350 349 347 344 341 339 337 337 333 332 331 326 325 322 321 319 319 318 316 314 312 312 312 312 312 311 312 313
347 354 355 354 354 353 352 353 352 349 349 348 346 343 341 339 338 335 334 330 326 323 318 316 314 318 318 316 313 312 311 311 312 311 311 312 314 315
356 352 354 355 353 353 353 351 351 349 348 346 345 343 340 339 336 334 331 329 321 324 322 321 318 316 314 313 312 312 311 311 312 311 311 312 312 312
358 356 353 354 354 353 351 346 347 347 345 343 340 338 338 336 333 330 329 325 325 324 323 321 319 316 313 311 311 313 313 313 312 311 311 311 311 310
354 356 354 353 354 353 351 346 345 341 339 340 339 338 337 334 331 329 326 324 325 324 322 319 319 316 313 312 312 313 313 312 311 311 311 311 309 308
356 354 354 352 353 353 347 341 339 336 335 338 338 337 335 332 330 327 326 326 325 322 320 318 316 313 312 312 312 312 311 311 310 312 311 309 308 307
354 353 353 351 350 350 347 343 338 338 339 338 337 336 333 331 328 326 326 325 323 320 318 316 314 312 312 313 313 311 309 312 312 311 310 308 307 305
355 354 348 346 345 344 343 340 339 338 337 336 335 333 331 329 327 326 326 324 321 319 316 314 313 312 313 312 308 311 313 311 310 309 308 307 305 304
350 350 344 344 344 340 339 337 337 337 335 335 333 331 329 327 327 326 323 320 318 316 314 313 312 311 311 311 311 312 312 311 311 309 307 305 304 303
339 342 341 343 337 334 337 337 336 335 333 332 330 328 327 327 324 322 320 318 316 313 311 311 312 311 311 311 311 311 311 311 310 309 308 306 304 302

GFSNE_850_thetae_036.txt.gz
Theta_e
327 324 336 341 341 341 339 339 338 338 339 338 336 336 336 336 336 336 334 332 334 334 330 328 328 328 324 326 326 326 326 327 328 327 326 324 320 319
341 327 324 330 339 340 339 338 337 336 336 339 338 337 336 336 336 336 336 334 336 335 328 327 327 327 325 326 326 327 326 325 324 321 319 317 315 315
345 334 329 327 328 338 339 338 338 337 336 333 336 337 337 336 335 333 335 333 334 333 334 333 333 330 327 326 327 327 326 325 322 320 317 316 315 315
349 342 334 330 329 330 338 338 338 338 338 337 336 339 339 338 338 335 329 332 336 338 335 334 334 332 329 328 328 327 326 323 320 318 318 317 316 316
351 349 341 338 332 327 327 335 338 338 338 338 337 335 337 337 339 338 337 334 332 332 333 333 334 333 332 331 330 328 326 323 324 326 325 322 317 317
355 352 345 341 337 334 330 325 330 337 337 336 334 336 336 338 338 338 338 336 337 337 337 335 334 333 333 332 330 328 329 328 328 327 326 324 319 318
340 353 351 342 340 336 337 332 325 329 338 337 337 338 338 337 338 337 339 337 336 335 335 334 335 334 333 331 330 331 330 329 326 324 322 319 319 319
345 341 345 345 344 340 338 338 333 334 337 335 336 339 339 340 338 338 338 338 337 336 336 334 335 335 334 333 331 326 325 324 322 321 319 318 318 317
349 347 346 345 348 347 348 345 345 340 341 342 343 344 342 340 339 339 339 338 337 337 333 336 335 335 332 329 326 325 324 323 321 318 313 309 307 305
348 347 347 347 349 347 346 349 345 344 341 342 344 345 345 344 341 340 339 339 338 333 332 335 332 332 332 328 324 324 323 321 317 314 312 311 311 311
349 350 350 349 348 349 351 349 348 342 344 344 344 345 346 346 343 340 340 339 336 332 333 333 333 332 330 323 322 321 321 318 316 314 312 312 312 312
353 353 352 351 350 349 353 353 352 349 345 343 345 346 346 342 343 342 341 336 336 335 333 333 333 331 326 321 321 320 318 316 314 313 312 312 312 312
350 354 353 351 350 354 354 352 350 347 345 346 346 347 347 346 344 342 339 336 335 335 333 332 330 329 325 320 319 319 318 315 313 312 312 312 311 311
359 357 357 356 355 355 356 356 353 353 352 350 349 348 348 347 346 342 337 335 334 335 335 329 327 325 323 319 318 317 315 312 312 312 312 311 311 314
362 360 359 358 357 357 356 356 356 357 356 354 352 348 348 347 344 341 339 336 334 334 333 331 327 323 316 315 315 314 312 311 311 311 311 311 311 311
362 360 360 358 357 357 357 357 357 356 355 354 353 349 348 345 341 340 338 336 333 330 331 327 320 317 317 315 311 311 311 312 311 312 312 311 310 309
363 362 361 360 357 356 356 357 357 356 357 354 352 349 347 343 338 338 337 335 332 332 327 321 322 321 319 315 309 309 310 313 313 312 311 310 311 311
362 362 361 361 359 357 356 355 354 355 354 352 349 347 344 336 335 337 336 335 333 328 323 324 323 322 318 314 312 312 312 313 313 311 310 311 310 309
358 358 359 360 359 358 356 355 353 352 352 351 350 342 331 333 337 336 334 330 329 324 325 324 321 320 317 317 313 313 312 313 312 309 312 310 309 306
356 358 357 355 355 356 353 352 350 350 347 349 346 338 335 337 337 334 330 330 326 325 325 322 319 318 316 313 313 314 312 310 312 311 310 310 307 306
345 347 350 354 353 353 352 351 350 349 347 346 340 340 338 338 335 332 330 327 326 325 325 321 319 317 314 312 312 313 311 313 312 311 311 308 307 306
337 337 340 342 345 347 347 347 346 345 345 342 339 337 337 335 333 331 329 327 327 325 322 320 317 314 313 312 312 310 311 312 312 311 310 308 307 306
334 334 339 338 337 340 343 343 343 342 341 340 338 338 336 334 330 330 327 326 326 323 320 316 314 313 312 311 311 312 312 311 311 311 309 308 307 306

GFSNE_850_thetae_039.txt.gz
Theta_e
327 335 336 339 339 339 335 337 338 338 339 338 337 336 336 336 336 335 336 335 333 330 331 328 327 326 327 325 325 326 326 326 326 325 323 319 317 315
333 329 327 336 339 340 340 336 335 337 337 337 338 337 336 335 335 336 335 336 332 331 332 330 330 329 326 326 325 326 326 326 326 324 320 317 316 316
343 341 333 325 338 338 340 339 337 335 333 333 335 338 337 335 336 335 335 335 333 329 335 334 334 333 333 330 329 328 327 326 326 322 319 319 319 317
338 343 340 333 328 328 335 336 337 335 335 333 334 335 337 337 336 336 337 336 330 329 334 336 335 334 333 332 332 330 329 327 326 322 322 325 325 320
338 343 342 345 336 329 329 334 336 336 334 336 335 336 338 337 337 338 338 337 334 328 331 332 333 334 334 332 332 330 328 327 327 327 326 326 323 321
337 333 335 341 337 335 331 329 334 337 336 334 333 335 336 337 337 338 338 337 336 335 334 335 334 335 334 333 331 330 330 329 328 328 326 323 321 318
344 338 336 334 334 334 337 334 332 331 333 332 333 334 334 335 335 337 338 337 337 336 336 334 335 334 335 334 332 332 330 330 328 325 322 319 316 315
345 345 343 338 336 337 337 337 338 337 331 328 327 331 335 337 339 338 337 338 338 337 336 335 335 334 335 334 333 332 329 325 324 322 320 315 309 308
344 342 341 343 343 341 339 341 343 341 340 339 328 330 336 338 339 339 338 339 338 338 337 336 334 334 334 334 332 329 325 324 322 319 315 311 310 309
345 344 343 342 342 343 344 345 348 348 346 345 341 333 336 340 341 341 339 339 338 338 338 337 335 331 333 331 331 328 323 322 320 317 314 312 311 311
350 349 347 345 345 346 349 349 348 348 347 347 347 345 341 342 343 343 342 340 339 339 338 337 331 332 330 332 331 325 321 321 318 316 313 312 311 312
356 356 354 352 353 352 353 352 352 349 348 347 349 349 346 343 343 344 344 342 341 340 339 333 332 332 332 332 328 323 320 319 317 314 312 312 311 312
358 356 357 357 358 359 358 358 355 353 352 352 350 349 350 348 345 344 343 343 342 340 338 333 331 332 334 329 325 321 319 318 315 313 312 312 312 311
361 361 360 359 358 357 357 357 358 359 357 356 354 352 351 350 347 345 345 344 341 341 337 335 332 332 333 329 323 320 318 317 313 312 311 312 311 311
361 360 359 359 360 359 357 357 357 358 359 357 355 354 354 352 349 347 343 340 339 339 337 337 334 333 329 327 324 318 314 316 314 311 311 311 311 311
365 365 364 363 362 360 360 358 357 358 358 359 357 355 353 352 352 349 345 342 339 336 336 334 334 330 326 324 317 314 312 312 310 310 311 312 312 310
366 365 364 363 363 363 362 361 359 358 358 358 357 356 354 353 352 348 343 340 335 335 334 333 333 331 323 319 317 315 309 308 309 311 313 312 311 309
359 359 359 359 361 362 362 359 357 357 358 357 355 354 353 350 349 346 339 333 333 336 335 333 330 327 321 321 319 312 310 311 312 314 313 312 309 310
358 358 357 355 355 357 358 358 356 356 355 354 353 353 352 348 348 342 334 334 335 337 334 333 331 324 323 322 318 313 313 312 313 314 312 310 309 308
352 346 343 345 350 353 355 353 354 353 353 353 352 352 349 346 347 337 332 333 335 335 333 331 326 323 323 321 319 316 312 312 312 312 311 310 310 307
331 334 335 336 337 337 342 346 346 349 351 349 348 350 346 345 341 335 333 334 335 332 331 326 324 324 323 319 315 314 313 313 311 311 311 310 309 307
333 331 332 333 336 339 337 336 339 339 341 347 348 345 342 336 335 335 333 335 331 328 329 326 325 321 318 317 316 314 311 311 312 312 311 311 309 308
332 333 334 333 334 335 334 340 340 340 341 340 343 339 336 337 337 335 335 334 331 331 327 325 324 321 319 317 314 313 312 311 312 311 311 310 308 307

GFSNE_850_thetae_045.txt.gz
Theta_e
338 339 339 337 336 338 339 339 338 338 337 336 336 338 338 336 336 335 335 335 335 335 333 328 330 328 326 326 326 326 325 326 326 326 326 324 320 319
340 336 338 337 337 339 338 339 338 337 337 337 336 337 338 338 337 336 335 335 335 335 335 330 328 330 329 330 329 329 329 329 329 328 326 324 319 323
341 338 330 333 335 336 337 338 337 337 336 332 333 334 336 337 337 336 336 335 335 335 335 334 330 331 333 333 332 330 331 329 326 326 324 323 324 325
342 340 338 336 327 328 333 334 334 335 336 334 334 334 333 333 333 336 337 336 335 336 336 335 330 332 334 334 334 332 331 330 328 324 325 326 326 325
347 344 337 337 336 334 330 328 328 334 337 337 335 335 335 335 334 333 333 336 336 336 337 336 333 328 331 334 334 333 332 331 330 328 326 326 327 323
348 348 341 335 333 332 332 335 338 335 330 333 332 330 333 334 335 335 334 334 336 336 336 336 335 330 330 331 332 333 333 332 330 327 327 328 326 321
347 345 344 342 339 337 334 332 332 334 339 342 339 335 331 330 331 330 333 332 334 335 336 336 336 336 334 332 332 333 333 332 331 329 329 329 324 319
344 343 343 344 344 344 344 344 343 340 337 337 338 341 337 336 333 331 332 335 336 333 335 335 336 336 336 334 332 333 334 333 332 332 330 325 320 316
344 344 345 345 345 346 347 348 348 347 345 344 343 341 338 336 337 338 337 335 334 333 333 334 336 337 337 336 334 333 333 334 334 333 327 322 317 312
342 343 344 344 345 346 348 349 348 347 348 348 347 344 344 344 344 343 342 346 344 340 335 334 335 338 337 337 336 335 332 333 334 333 325 319 317 311
340 343 344 345 347 350 352 352 350 345 347 348 347 349 350 351 351 352 352 351 349 347 344 337 335 337 338 337 337 336 332 330 333 328 322 317 316 312
350 352 353 354 355 356 357 357 357 355 357 356 355 355 356 356 356 355 354 349 351 345 348 345 337 336 338 338 337 336 330 330 330 326 320 318 316 314
358 358 358 359 359 360 360 358 358 358 356 356 356 356 355 355 355 354 354 354 351 348 350 344 342 338 337 338 337 336 329 327 330 323 321 318 316 314
360 361 360 358 358 358 358 358 358 358 359 359 358 357 357 357 354 353 353 353 354 354 353 350 344 342 339 337 337 336 330 328 328 325 323 318 316 313
361 360 361 362 361 362 360 359 360 362 362 360 360 359 358 357 359 359 359 357 357 356 355 352 350 342 339 337 337 333 333 327 331 322 321 318 315 313
360 359 361 361 362 360 361 361 361 362 361 361 361 358 357 359 358 358 357 357 357 355 354 354 351 343 338 336 338 332 333 330 329 322 320 317 314 312
361 363 360 360 360 360 360 358 357 356 355 354 352 353 351 348 347 349 353 352 350 351 350 346 345 345 339 339 336 333 332 329 329 321 318 316 313 311
362 359 358 357 357 356 357 355 351 345 343 340 342 343 341 339 344 346 346 347 350 348 347 345 342 339 337 336 336 333 329 328 327 320 318 315 312 311
361 357 355 355 355 350 343 335 334 336 336 333 335 337 337 337 338 341 344 348 345 344 344 344 338 340 334 333 332 333 331 327 324 318 315 313 311 309
354 349 345 341 335 332 332 333 333 333 333 334 336 336 336 337 338 340 341 342 341 343 343 340 331 331 332 333 331 330 327 325 317 315 312 311 311 312
338 334 332 332 332 332 333 333 332 332 333 336 335 336 336 337 340 342 340 339 340 339 338 330 332 330 332 333 331 327 324 317 315 312 310 310 313 311
331 331 331 331 332 333 334 333 332 333 335 333 334 336 336 338 337 335 333 334 333 332 332 331 329 331 332 330 327 324 317 312 310 311 311 311 310 311
330 331 332 332 334 333 334 334 334 334 335 335 334 336 333 334 332 331 331 332 331 330 329 329 330 331 325 324 326 322 318 314 312 313 312 312 311 311